Location: Girdwood
(60.9430°N, 149.1660°W)
Time: 15:06:50
(UTC-08:00)

Iridium 86 - Visible Passes

Search period start: 19 April 2018 00:00
Search period end: 29 April 2018 00:00
Orbit: 775 x 780 km, 86.4° (Epoch: 19 April)

Date Brightness Start Highest point End Pass type
(mag) Time Alt. Az. Time Alt. Az. Time Alt. Az.
19 Apr 7.1 01:45:37 14° ESE 01:48:58 26° ENE 01:53:13 10° NNE visible
19 Apr 5.5 03:26:05 25° SSW 03:29:14 79° W 03:34:30 10° N visible
19 Apr 7.1 05:06:54 10° WSW 05:10:51 21° WNW 05:14:49 10° N visible
20 Apr 7.6 01:12:23 10° ESE 01:15:47 18° ENE 01:19:12 10° NNE visible
20 Apr 5.7 02:52:36 25° S 02:55:41 71° E 03:00:55 10° N visible
20 Apr 6.7 04:33:04 13° WSW 04:36:55 30° WNW 04:41:30 10° N visible
21 Apr 7.9 00:40:42 10° E 00:42:42 12° ENE 00:44:43 10° NE visible
21 Apr 6.2 02:19:07 22° SSE 02:22:15 47° E 02:27:15 10° NNE visible
21 Apr 6.2 03:59:35 18° SW 04:03:06 42° WNW 04:08:05 10° N visible
22 Apr 6.8 01:45:38 17° SE 01:48:54 32° E 01:53:30 10° NNE visible
22 Apr 5.7 03:26:06 23° SSW 03:29:23 62° WNW 03:34:36 10° N visible
22 Apr 7.4 05:07:48 10° W 05:11:15 17° NW 05:14:42 10° NNW visible
23 Apr 7.3 01:12:09 12° ESE 01:15:40 22° ENE 01:19:37 10° NNE visible
23 Apr 5.5 02:52:36 25° S 02:55:47 89° E 03:01:04 10° N visible
23 Apr 7.0 04:33:04 10° WSW 04:37:15 24° WNW 04:41:29 10° N visible
24 Apr 7.7 00:39:34 10° ESE 00:42:32 15° ENE 00:45:29 10° NNE visible
24 Apr 5.8 02:19:07 23° SSE 02:22:17 60° E 02:27:26 10° N visible
24 Apr 6.6 03:59:34 15° SW 04:03:22 34° WNW 04:08:08 10° N visible
25 Apr 8.0 00:08:39 10° ENE 00:09:30 10° ENE 00:10:20 10° NE visible
25 Apr 6.4 01:45:36 19° SE 01:48:53 40° E 01:53:45 10° NNE visible
25 Apr 6.0 03:26:04 19° SW 03:29:35 49° WNW 03:34:41 10° N visible
25 Apr 7.6 05:08:54 10° W 05:11:41 14° NW 05:14:29 10° NNW visible
26 Apr 7.0 01:12:06 14° SE 01:15:35 28° ENE 01:19:57 10° NNE visible
26 Apr 5.6 02:52:33 23° SSW 02:55:55 73° W 03:01:11 10° N visible
26 Apr 7.3 04:33:50 10° WSW 04:37:37 20° WNW 04:41:25 10° N visible
27 Apr 7.4 00:38:47 10° ESE 00:42:23 19° ENE 00:46:00 10° NNE visible
27 Apr 5.6 02:19:02 23° S 02:22:21 77° E 02:27:36 10° N visible
27 Apr 6.9 03:59:30 11° WSW 04:03:40 28° WNW 04:08:09 10° N visible
28 Apr 7.7 00:06:54 10° E 00:09:17 13° ENE 00:11:40 10° NE visible
28 Apr 6.0 01:45:31 20° SSE 01:48:53 51° E 01:53:57 10° NNE visible
28 Apr 6.4 03:25:59 16° SW 03:29:49 39° WNW 03:34:45 10° N visible
